Greentree Foundation NY US WEATHERSTEM current weather conditions

sailwx.info

Wind from 307 at 10 knots gusting 15

Air temperature 2.1° C
Dewpoint -4.7° C

Last reported at 2019-Dec-06 05:00 UTC.
Time now 2019-Dec-06 05:17 UTC

Location: N 40°47' W 073°42'.
View on Google Maps.

See reports from other nearby stations

  
Tides and Currents Weather Stations Pressure Air Temp Water Temp Dewpoint Dewpoint Depression Visibility Wind Speed Wind Dir Waves Ship Positions
date/time (UTC)wind fromknots sea level pressurealtimeterstation pressurevisibilityair tempwater tempwave heightnotes
2019-Dec-06 05:00 307 10 gusting 15 2.1
2019-Dec-06 04:50 342 12 gusting 16 2.1
2019-Dec-06 04:40 318 9 gusting 21 2.1
2019-Dec-06 04:30 283 7 gusting 18 2.1
2019-Dec-06 04:20 307 9 gusting 19 2.2
2019-Dec-06 04:10 344 7 gusting 19 2.3
2019-Dec-06 04:00 292 6 gusting 18 2.4
2019-Dec-06 03:50 329 11 gusting 17 2.5
2019-Dec-06 03:40 335 8 gusting 23 2.5
2019-Dec-06 03:30 333 9 gusting 14 2.5
2019-Dec-06 03:20 338 12 gusting 14 2.5
2019-Dec-06 03:10 312 3 gusting 18 2.6
2019-Dec-06 03:00 302 10 gusting 18 2.6
2019-Dec-06 02:50 296 7 gusting 13 2.5
2019-Dec-06 02:40 338 8 gusting 14 2.5
2019-Dec-06 02:30 305 6 gusting 11 2.4
2019-Dec-06 02:20 307 7 gusting 13 2.3
2019-Dec-06 02:10 331 3 gusting 18 2.3
2019-Dec-06 02:00 321 2 gusting 13 2.2
2019-Dec-06 01:50 325 8 gusting 14 2.3
2019-Dec-06 01:40 331 8 gusting 19 2.4
2019-Dec-06 01:30 302 6 gusting 12 2.4
2019-Dec-06 01:20 342 7 gusting 16 2.6
2019-Dec-06 01:10 306 6 gusting 18 2.8
2019-Dec-06 01:00 313 9 gusting 15 2.9
2019-Dec-06 00:50 285 12 gusting 14 2.9
2019-Dec-06 00:40 315 9 gusting 13 3.0
2019-Dec-06 00:30 341 6 gusting 12 2.9
2019-Dec-06 00:20 290 8 gusting 12 2.9
2019-Dec-06 00:10 282 7 gusting 8 2.7
2019-Dec-06 00:00 355 5 gusting 11 2.8
2019-Dec-05 23:50 355 8 gusting 15 3.1
2019-Dec-05 23:40 321 5 gusting 14 3.2
2019-Dec-05 23:30 332 7 gusting 14 3.3
2019-Dec-05 23:20 322 5 gusting 15 3.3
2019-Dec-05 23:10 305 11 gusting 14 3.4
2019-Dec-05 23:00 322 5 gusting 11 3.4
2019-Dec-05 22:50 298 6 gusting 11 3.4
2019-Dec-05 22:40 294 10 gusting 15 3.6
2019-Dec-05 22:30 285 8 gusting 13 3.6
2019-Dec-05 22:20 297 6 gusting 13 3.6
2019-Dec-05 22:10 292 8 gusting 16 3.6
2019-Dec-05 22:00 265 1 gusting 19 3.7
2019-Dec-05 21:50 306 4 gusting 15 3.8
2019-Dec-05 21:40 307 10 gusting 16 3.9
2019-Dec-05 21:30 306 8 gusting 18 3.9
2019-Dec-05 21:20 284 8 gusting 18 3.9
2019-Dec-05 21:10 311 10 gusting 16 4.0
2019-Dec-05 21:00 337 10 gusting 25 4.1
2019-Dec-05 20:50 282 6 gusting 17 4.1
2019-Dec-05 20:40 255 14 gusting 18 4.1
2019-Dec-05 20:30 288 11 gusting 16 4.1
2019-Dec-05 20:20 325 8 gusting 18 4.2
2019-Dec-05 20:10 307 14 gusting 20 4.2
2019-Dec-05 20:00 317 3 gusting 18 4.2
2019-Dec-05 19:50 296 9 gusting 21 4.1
2019-Dec-05 19:40 314 12 gusting 22 4.2
2019-Dec-05 19:30 317 10 gusting 22 4.4
2019-Dec-05 19:20 314 9 gusting 15 4.3
2019-Dec-05 19:10 300 6 gusting 19 4.4
2019-Dec-05 19:00 300 13 gusting 21 4.2
2019-Dec-05 18:50 300 13 gusting 26 4.2
2019-Dec-05 18:40 331 9 gusting 21 4.3
2019-Dec-05 18:30 325 13 gusting 21 4.3
2019-Dec-05 18:20 309 14 gusting 20 4.4
2019-Dec-05 18:10 330 9 gusting 20 4.6
2019-Dec-05 18:00 325 12 gusting 23 4.9
2019-Dec-05 17:50 346 6 gusting 18 4.9
2019-Dec-05 17:40 316 11 gusting 19 4.8
2019-Dec-05 17:30 309 13 gusting 19 4.7
2019-Dec-05 17:20 315 16 gusting 22 4.5
2019-Dec-05 17:10 005 13 gusting 24 4.4
2019-Dec-05 17:00 293 6 gusting 19 4.2
2019-Dec-05 16:50 313 12 gusting 19 3.9
2019-Dec-05 16:40 329 5 gusting 24 4.1
2019-Dec-05 16:30 275 13 gusting 20 4.6
2019-Dec-05 16:20 332 17 gusting 26 4.3
2019-Dec-05 16:10 319 14 gusting 22 4.3
2019-Dec-05 16:00 307 18 gusting 24 4.8
2019-Dec-05 15:50 305 11 gusting 18 4.9
2019-Dec-05 15:40 290 13 gusting 22 4.7
2019-Dec-05 15:30 290 12 gusting 19 4.6
2019-Dec-05 15:20 306 8 gusting 19 4.4
2019-Dec-05 15:10 338 9 gusting 18 4.4
2019-Dec-05 15:00 261 11 gusting 19 4.3
2019-Dec-05 14:50 325 5 gusting 15 4.4
2019-Dec-05 14:40 278 9 gusting 13 4.2
2019-Dec-05 14:30 268 6 gusting 14 4.0
2019-Dec-05 14:20 303 3 gusting 13 4.1
2019-Dec-05 14:10 273 3 gusting 16 4.0
2019-Dec-05 14:00 276 5 gusting 18 3.9
2019-Dec-05 13:50 331 13 gusting 14 3.9
2019-Dec-05 13:40 303 6 gusting 13 3.6
2019-Dec-05 13:30 301 9 gusting 14 3.3
2019-Dec-05 13:20 350 8 gusting 13 3.2
2019-Dec-05 13:10 308 6 gusting 13 3.0
2019-Dec-05 13:00 314 9 gusting 13 3.0
2019-Dec-05 12:50 316 8 gusting 14 3.1
2019-Dec-05 12:40 327 7 gusting 14 3.1
2019-Dec-05 12:30 289 8 gusting 14 3.1
2019-Dec-05 12:20 320 5 gusting 13 2.9
2019-Dec-05 12:10 331 6 gusting 14 2.8
2019-Dec-05 12:00 303 6 gusting 14 2.8
2019-Dec-05 11:50 266 5 gusting 13 2.8
2019-Dec-05 11:40 326 4 gusting 8 2.8
2019-Dec-05 11:30 320 8 gusting 10 2.8
2019-Dec-05 11:20 305 4 gusting 10 2.8
2019-Dec-05 11:10 312 5 gusting 12 2.8
2019-Dec-05 11:00 287 6 gusting 13 2.7
2019-Dec-05 10:50 287 4 gusting 13 2.7
2019-Dec-05 10:40 290 7 gusting 9 2.7
2019-Dec-05 10:30 317 4 gusting 12 2.7
2019-Dec-05 10:20 323 6 gusting 13 2.6
2019-Dec-05 10:10 296 6 gusting 11 2.6
2019-Dec-05 10:00 309 6 gusting 13 2.6
2019-Dec-05 09:50 280 5 gusting 10 2.6
2019-Dec-05 09:40 276 5 gusting 11 2.5
2019-Dec-05 09:30 267 9 gusting 9 2.4
2019-Dec-05 09:20 322 6 gusting 8 2.2
2019-Dec-05 09:10 312 5 gusting 8 2.0
2019-Dec-05 09:00 309 1 gusting 6 1.9
2019-Dec-05 08:50 307 2 gusting 10 1.9
2019-Dec-05 08:40 315 2 gusting 6 1.8
2019-Dec-05 08:30 267 3 gusting 6 1.8
2019-Dec-05 08:20 288 1 gusting 7 1.8
2019-Dec-05 08:10 281 1 gusting 6 1.8
2019-Dec-05 08:00 275 5 gusting 8 1.9
2019-Dec-05 07:30 301 2 gusting 6 2.1
2019-Dec-05 07:20 283 2 gusting 8 2.1
2019-Dec-05 07:10 329 4 gusting 8 2.3
2019-Dec-05 07:00 310 4 gusting 9 2.4
2019-Dec-05 06:50 304 1 gusting 9 2.4
2019-Dec-05 06:40 293 6 gusting 9 2.5
2019-Dec-05 06:30 240 8 gusting 8 2.4
2019-Dec-05 06:20 287 4 gusting 8 2.5
2019-Dec-05 06:10 295 2 gusting 7 2.5
2019-Dec-05 06:00 279 2 gusting 6 2.4
2019-Dec-05 05:50 300 0 gusting 6 2.4
2019-Dec-05 05:40 289 1 gusting 3 2.6
2019-Dec-05 05:30 292 3 gusting 4 2.7
2019-Dec-05 05:20 279 2 gusting 6 2.7
2019-Dec-05 05:10 256 1 gusting 6 2.7
2019-Dec-05 05:00 292 4 gusting 6 2.8
2019-Dec-05 04:50 279 1 gusting 7 2.7
2019-Dec-05 04:40 259 2 gusting 7 2.7
2019-Dec-05 04:30 290 1 gusting 6 2.8
2019-Dec-05 04:20 296 1 gusting 7 2.8
2019-Dec-05 04:10 276 5 gusting 8 2.8
2019-Dec-05 04:00 224 5 gusting 7 2.8
2019-Dec-05 03:50 240 3 gusting 7 2.8
2019-Dec-05 03:40 274 5 gusting 6 2.8
2019-Dec-05 03:30 257 6 gusting 6 3.0
2019-Dec-05 03:20 243 4 gusting 8 3.1
2019-Dec-05 03:10 261 2 gusting 10 3.2
2019-Dec-05 03:00 271 1 gusting 7 3.2
2019-Dec-05 02:50 269 1 gusting 6 3.1
2019-Dec-05 02:40 279 1 gusting 6 3.1
2019-Dec-05 02:30 231 1 gusting 7 3.1
2019-Dec-05 02:20 279 3 gusting 5 3.0
2019-Dec-05 02:10 304 2 gusting 6 3.1
2019-Dec-05 02:00 242 3 gusting 7 3.1
2019-Dec-05 01:50 261 5 gusting 8 3.2
2019-Dec-05 01:40 286 1 gusting 7 3.2
2019-Dec-05 01:30 266 1 gusting 9 3.2
2019-Dec-05 01:20 265 3 gusting 7 3.2
2019-Dec-05 01:10 257 1 gusting 8 3.2
2019-Dec-05 01:00 276 1 gusting 6 3.1
2019-Dec-05 00:50 262 2 gusting 4 3.1
2019-Dec-05 00:40 254 1 gusting 3 3.0
2019-Dec-05 00:30 261 1 gusting 5 3.1
2019-Dec-05 00:20 296 2 gusting 4 3.0
2019-Dec-05 00:10 294 1 gusting 6 3.1
2019-Dec-05 00:00 288 1 gusting 6 3.1
2019-Dec-04 23:50 279 2 gusting 5 2.9
2019-Dec-04 23:40 276 1 gusting 6 3.1
2019-Dec-04 23:30 265 1 gusting 5 3.0
2019-Dec-04 23:20 316 1 gusting 3 3.0
2019-Dec-04 23:10 262 2 gusting 3 3.0
2019-Dec-04 23:00 237 1 gusting 4 3.1
2019-Dec-04 22:50 236 0 gusting 6 3.1
2019-Dec-04 22:40 273 2 gusting 6 3.2
2019-Dec-04 22:30 232 2 gusting 5 3.2
2019-Dec-04 22:20 292 3 gusting 6 3.3
2019-Dec-04 22:10 200 4 gusting 6 3.3
2019-Dec-04 22:00 259 3 gusting 8 3.3
2019-Dec-04 21:50 254 3 gusting 6 3.4
2019-Dec-04 21:40 234 5 gusting 7 3.5
2019-Dec-04 21:30 252 4 gusting 6 3.4
2019-Dec-04 21:20 252 0 gusting 8 3.4
2019-Dec-04 21:10 253 1 gusting 8 3.5
2019-Dec-04 21:00 294 1 gusting 4 3.5
2019-Dec-04 20:50 310 2 gusting 6 3.6
2019-Dec-04 20:40 281 3 gusting 5 3.5
2019-Dec-04 20:30 291 2 gusting 11 3.5
2019-Dec-04 20:20 279 2 gusting 7 3.5
2019-Dec-04 20:10 281 2 gusting 7 3.6
2019-Dec-04 20:00 267 5 gusting 9 3.6
2019-Dec-04 19:50 301 3 gusting 6 3.5
2019-Dec-04 19:40 327 1 gusting 7 3.4
2019-Dec-04 19:30 299 3 gusting 6 3.4
2019-Dec-04 19:20 329 3 gusting 7 3.2
2019-Dec-04 19:10 331 3 gusting 7 3.2
2019-Dec-04 19:00 292 1 gusting 4 3.2
2019-Dec-04 18:50 293 2 gusting 4 3.1
2019-Dec-04 18:40 305 1 gusting 7 2.9
2019-Dec-04 18:30 306 2 gusting 4 3.0
2019-Dec-04 18:20 305 2 gusting 6 2.9
2019-Dec-04 18:10 275 1 gusting 6 2.9
2019-Dec-04 18:00 290 3 gusting 7 2.8
2019-Dec-04 17:50 297 6 gusting 9 2.8
2019-Dec-04 17:40 298 6 gusting 9 2.8
2019-Dec-04 17:30 310 3 gusting 9 2.8
2019-Dec-04 17:20 298 6 gusting 10 2.8
2019-Dec-04 17:10 294 3 gusting 11 2.9
2019-Dec-04 17:00 334 7 gusting 10 3.1
2019-Dec-04 16:50 240 2 gusting 7 2.9
2019-Dec-04 16:40 180 1 gusting 7 2.9
2019-Dec-04 16:30 294 6 gusting 6 2.9
2019-Dec-04 16:20 261 7 gusting 9 2.9
2019-Dec-04 16:10 245 2 gusting 6 3.1
2019-Dec-04 16:00 269 3 gusting 5 3.1
2019-Dec-04 15:50 261 2 gusting 6 2.9
2019-Dec-04 15:40 218 3 gusting 5 2.8
2019-Dec-04 15:30 227 3 gusting 6 2.8
2019-Dec-04 15:20 248 0 gusting 7 2.7
2019-Dec-04 15:10 256 1 gusting 6 2.6
2019-Dec-04 15:00 260 3 gusting 6 2.6
2019-Dec-04 14:50 277 1 gusting 5 2.6
2019-Dec-04 14:40 299 2 gusting 7 2.4
2019-Dec-04 14:30 281 3 gusting 4 2.3
2019-Dec-04 14:20 272 2 gusting 6 2.2
2019-Dec-04 14:10 238 6 gusting 6 2.1
2019-Dec-04 14:00 242 1 gusting 6 2.1
2019-Dec-04 13:50 281 2 gusting 7 2.1
2019-Dec-04 13:40 252 2 gusting 6 2.0
2019-Dec-04 13:20 250 2 gusting 6 1.9
2019-Dec-04 13:10 292 1 gusting 5 1.8
2019-Dec-04 13:00 246 1 gusting 6 1.7
2019-Dec-04 12:50 248 0 gusting 4 1.7
2019-Dec-04 12:40 270 2 gusting 6 1.6
2019-Dec-04 12:30 1.4
2019-Dec-04 12:20 228 1 gusting 3 1.3
2019-Dec-04 12:10 227 0 gusting 2 1.3
2019-Dec-04 12:00 235 1.3
2019-Dec-04 11:50 288 0 gusting 2 1.3
2019-Dec-04 11:40 284 0 gusting 4 1.2
2019-Dec-04 11:30 267 1 gusting 4 1.1
2019-Dec-04 11:20 0.9
2019-Dec-04 11:10 255 1 gusting 3 0.7
2019-Dec-04 11:00 294 0 gusting 3 0.7
2019-Dec-04 10:50 286 1 gusting 3 0.7
2019-Dec-04 10:40 250 0 gusting 3 0.6
2019-Dec-04 10:30 0.7
2019-Dec-04 10:20 0.6
2019-Dec-04 10:10 277 1 gusting 6 0.6
2019-Dec-04 10:00 274 1 gusting 5 0.5
2019-Dec-04 09:50 0.4
2019-Dec-04 09:40 299 0 gusting 3 0.5
2019-Dec-04 09:30 0.5
2019-Dec-04 09:20 316 3 gusting 6 0.5
2019-Dec-04 09:10 344 1 gusting 4 0.3
2019-Dec-04 09:00 283 0 gusting 3 0.3
2019-Dec-04 08:50 310 0 gusting 4 0.2
2019-Dec-04 08:40 305 2 gusting 4 0.1
2019-Dec-04 08:30 326 2 gusting 4 0.1
2019-Dec-04 08:20 271 1 gusting 3 0.1
2019-Dec-04 08:10 315 1 gusting 7 0.1
2019-Dec-04 08:00 281 0 gusting 5 0.1
2019-Dec-04 07:50 328 2 gusting 8 0.1
2019-Dec-04 07:40 298 4 gusting 8 0.1
2019-Dec-04 07:30 267 5 gusting 8 -0.0
2019-Dec-04 07:20 319 6 gusting 8 -0.1
2019-Dec-04 07:10 294 2 gusting 8 -0.3
2019-Dec-04 07:00 309 4 gusting 8 -0.4
2019-Dec-04 06:50 279 5 gusting 6 -0.7
2019-Dec-04 06:40 310 1 gusting 6 -0.6
2019-Dec-04 06:30 315 2 gusting 4 -0.7
2019-Dec-04 06:20 281 1 gusting 6 -0.7
2019-Dec-04 06:10 306 2 gusting 6 -0.6
2019-Dec-04 06:00 299 2 gusting 4 -0.4
2019-Dec-04 05:50 324 3 gusting 7 -0.2
2019-Dec-04 05:40 344 5 gusting 7 -0.1
2019-Dec-04 05:30 316 4 gusting 8 -0.0
2019-Dec-04 05:20 311 3 gusting 6 0.1
2019-Dec-04 05:10 315 4 gusting 8 0.1
2019-Dec-04 05:00 279 5 gusting 9 0.1